sat.trackr.live / text

‹ back to catalog

STARLINK-4597

NORAD 53640 · 2022-104BE

PAYLOAD ACTIVE UNKNOWN

§ Identity

Operator
Country
US
Launch date
2022-08-28
Launch site
AFETR
Launch vehicle
Mass (kg)
RCS (m²)

Purposes: comms

External: N2YO · Heavens-Above · Gunter

§ Orbital elements

Epoch: 2026-09-20T14:18:50.986944Z

Period
93.85 min
Inclination
53.1600°
Eccentricity
0.0000714
Mean motion
15.34399572 rev/d
Perigee alt
462.2 km
Apogee alt
463.2 km
Semi-major
6,840.8 km
B*
2.4388e-5
RAAN
61.1929°
Arg perigee
117.8447°
Mean anomaly
242.2628°
Rev number
22,575

§ Raw data

STARLINK-45971 53640U 22104BE  26263.59642346  .00000448  00000+0  24388-4 0  99992 53640  53.1600  61.1929 0000714 117.8447 242.2628 15.34399572225752

JSON: /api/v1/satellites/53640 · /tle

For live sub-satellite position, see the globe view (requires WebGL).

§ Visibility from observer

Set your observer location to see the next 7 days of passes ≥ 10°. The values pass through the URL so the page stays shareable.

No JS? Fill the form by hand. The geolocation button needs JavaScript.